Stations météo

réclame
Mon MeteoGroup
Annecy-Meythet, France (7490): Température de l'air & dewpoint: 11.01.2020 23:00:00 - 17.01.2020 23:00:00 (CET)Annecy-Meythet, France (7490): Température de l'air 5cm: 11.01.2020 23:00:00 - 17.01.2020 23:00:00 (CET)Annecy-Meythet, France (7490): Température de l'air -20cm & Température de l'air -100cm: 11.01.2020 23:00:00 - 17.01.2020 23:00:00 (CET)Annecy-Meythet, France (7490): Vitesse du vent & gusts: 11.01.2020 23:00:00 - 17.01.2020 23:00:00 (CET)Annecy-Meythet, France (7490): Direction du vent: 11.01.2020 23:00:00 - 17.01.2020 23:00:00 (CET)Annecy-Meythet, France (7490): reduced air pressure: 11.01.2020 23:00:00 - 17.01.2020 23:00:00 (CET)Annecy-Meythet, France (7490): visibility: 11.01.2020 23:00:00 - 17.01.2020 23:00:00 (CET)Annecy-Meythet, France (7490): Quantités de précipitations: 11.01.2020 23:00:00 - 17.01.2020 23:00:00 (CET)
Date & Time tt [°C] td [°C] tt 5cm [°C] tt -20cm [°C] tt -100cm [°C] ff [km/h] ff [knt] fx [km/h] fx [knt] dd ppp [hPa] vv [km] rr [mm]
17.01.2020 23:00:00 3,7 3,3 3,0 2,4 5,8 4 2 8 5 SW 1028,9 2,9 0,0
17.01.2020 22:00:00 4,1 3,7 3,2 2,3 5,8 3 2 10 5 N 1028,3 9 0,6
17.01.2020 21:00:00 4,0 3,7 3,1 2,3 5,8 4 2 11 6 S 1027,8 3,1 1,6
17.01.2020 20:00:00 4,2 3,8 3,5 2,2 5,9 7 4 10 5 SE 1026,6 4,6 1,0
17.01.2020 19:00:00 4,4 3,7 3,7 2,1 5,9 6 3 17 9 WNW 1025,7 5 2,2
17.01.2020 18:00:00 4,8 3,6 3,9 2,0 5,9 8 4 23 12 SE 1024,9 12 0,0
17.01.2020 17:00:00 5,4 4,0 4,4 1,8 5,8 8 4 20 11 SSE 1024,1 38 0,4
17.01.2020 16:00:00 5,1 4,5 4,0 1,7 5,9 5 3 24 13 E 1023,8 6 2,6
17.01.2020 15:00:00 4,9 3,7 3,5 1,6 5,9 6 3 18 10 N 1023,8 8 1,6
17.01.2020 14:00:00 4,1 3,5 3,5 1,6 5,9 8 5 11 6 ENE 1023,9 6 1,6
17.01.2020 13:00:00 4,1 2,6 3,6 1,6 5,9 2 1 5 3 SSE 1024,7 7 1,4
17.01.2020 12:00:00 4,1 2,1 4,0 1,6 5,9 2 1 5 3 SE 1024,6 19 0,0
17.01.2020 11:00:00 3,6 1,3 1,9 1,6 5,9 4 2 10 5 SE 1025,0 20 0,0
17.01.2020 10:00:00 2,2 -0,1 -0,5 1,6 5,8 8 4 10 6 N 1025,6 28 0,0
17.01.2020 09:00:00 -0,4 -1,5 -2,5 1,7 5,9 5 3 11 6 SE 1027,1 27 0,0
17.01.2020 08:00:00 -0,3 -1,9 -3,0 1,7 5,9 6 3 16 9 NE 1026,7 31 0,0
17.01.2020 07:00:00 -0,3 -1,7 -3,6 1,8 5,9 6 3 13 7 NNW 1026,7 37 0,0
17.01.2020 06:00:00 -1,2 -2,3 -3,6 1,8 5,9 2 1 8 4 NNW 1027,2 28 0,0
17.01.2020 05:00:00 -1,0 -2,6 -3,2 1,9 5,9 2 1 12 6 WSW 1027,3 29 0,0
17.01.2020 04:00:00 1,0 -1,2 -1,3 1,9 5,9 9 5 18 10 NE 1026,9 43 0,0
17.01.2020 03:00:00 0,9 -1,2 -1,3 2,0 5,9 10 6 21 12 NE 1027,2 32 0,0
17.01.2020 02:00:00 -0,4 -1,7 -2,0 2,0 5,9 15 8 19 11 NE 1027,7 18 0,0
17.01.2020 01:00:00 -0,8 -1,9 -3,1 2,1 5,9 12 7 14 7 ENE 1028,3 14 -
17.01.2020 00:00:00 -0,6 -1,9 -2,4 2,3 5,9 8 5 14 8 ENE 1028,6 14 0,0
16.01.2020 23:00:00 -0,2 -1,5 -1,5 2,4 5,9 7 4 15 8 NE 1028,4 13 0,0
16.01.2020 22:00:00 0,4 -1,0 -0,9 2,5 5,9 11 6 16 8 NE 1028,7 14 0,0
16.01.2020 21:00:00 0,7 -0,8 -0,8 2,6 5,9 11 6 15 8 ENE 1029,1 15 0,0
16.01.2020 20:00:00 1,3 -0,5 -0,8 2,7 5,9 10 5 14 8 ENE 1029,2 13 0,0
16.01.2020 19:00:00 2,6 0,5 -0,4 2,8 5,9 13 7 15 8 ENE 1029,1 19 0,0
16.01.2020 18:00:00 4,8 0,9 -0,3 2,7 5,9 5 3 9 5 NE 1028,5 16 0,0
16.01.2020 17:00:00 8,8 1,9 8,2 2,7 6,0 5 3 8 5 SSW 1027,2 49 0,0
16.01.2020 16:00:00 11,2 3,2 14,8 2,3 5,9 4 2 8 5 SSW 1026,6 58 0,0
16.01.2020 15:00:00 11,9 1,8 15,3 1,9 5,9 2 1 11 6 S 1026,7 49 0,0
16.01.2020 14:00:00 10,3 1,6 14,8 1,6 5,9 3 2 8 4 NE 1027,5 55 0,0
16.01.2020 13:00:00 8,9 1,8 10,9 1,5 5,9 2 1 9 5 ENE 1028,5 33 0,0
16.01.2020 12:00:00 6,8 1,5 8,1 1,5 5,9 3 2 8 4 E 1029,7 19 0,0
16.01.2020 11:00:00 5,1 0,8 4,9 1,5 5,9 3 2 6 3 S 1030,7 20 0,0
16.01.2020 10:00:00 2,5 -0,1 -1,5 1,5 5,9 0 0 11 6 N 1031,2 20 0,0
16.01.2020 09:00:00 -0,9 -1,7 -4,1 1,6 5,9 5 3 9 5 N 1031,6 16 0,0
16.01.2020 08:00:00 -1,0 -2,0 -4,2 1,6 5,9 5 3 9 5 N 1031,4 19 0,0
16.01.2020 07:00:00 -0,5 -1,3 -3,0 1,6 5,9 5 3 12 7 NNE 1031,1 20 0,0
16.01.2020 06:00:00 0,0 -1,1 -2,7 1,7 6,0 5 3 17 9 E 1031,0 40 0,0
16.01.2020 05:00:00 -0,2 -1,0 -2,2 1,7 6,0 5 3 16 8 NNE 1031,0 19 0,0
16.01.2020 04:00:00 0,1 -0,9 -2,6 1,7 5,9 4 2 16 9 E 1031,5 20 0,0
16.01.2020 03:00:00 -0,6 -1,6 -2,6 1,8 6,0 5 3 16 8 ENE 1031,5 11 0,0
16.01.2020 02:00:00 0,7 -0,5 -2,1 1,8 5,9 8 5 16 9 NE 1031,1 19 0,0
16.01.2020 01:00:00 0,3 -0,8 -2,0 1,9 6,0 7 4 15 8 NE 1031,3 13 0,0
16.01.2020 00:00:00 0,3 -0,6 -2,1 2,0 6,0 5 3 12 6 N 1031,3 11 0,0
15.01.2020 23:00:00 1,0 0,0 -2,5 2,0 5,9 7 4 13 7 NE 1030,8 13 0,0
15.01.2020 22:00:00 1,2 0,3 -1,9 2,1 6,0 2 1 11 6 NNE 1030,2 11 0,0
15.01.2020 21:00:00 1,8 0,6 -1,7 2,3 6,0 6 4 13 7 NNW 1029,5 15 0,0
15.01.2020 20:00:00 2,0 0,8 -1,5 2,3 6,0 4 2 10 5 NE 1029,3 14 0,0
15.01.2020 19:00:00 3,4 0,8 -0,3 2,3 6,0 7 4 12 7 E 1028,1 25 0,0
15.01.2020 18:00:00 7,1 2,2 1,9 2,3 6,0 6 3 16 9 NNE 1026,2 32 0,0
15.01.2020 17:00:00 8,9 2,9 6,2 2,1 6,0 6 3 16 9 SSW 1025,1 48 0,0
15.01.2020 16:00:00 10,3 3,1 9,5 1,9 6,0 8 5 29 16 W 1024,2 52 0,0
15.01.2020 15:00:00 10,0 3,0 9,5 1,6 6,0 18 10 32 17 SW 1024,0 60 0,0
15.01.2020 14:00:00 11,6 1,2 11,0 1,4 6,0 18 10 29 15 SW 1023,0 59 0,0
15.01.2020 13:00:00 11,6 0,4 12,7 1,4 6,0 2 1 7 4 SE 1022,9 48 0,0
15.01.2020 12:00:00 8,7 0,4 10,7 1,5 6,0 3 2 10 5 N 1023,5 20 0,0
15.01.2020 11:00:00 6,0 -0,1 5,7 1,5 6,0 8 4 13 7 NE 1024,0 54 0,0
15.01.2020 10:00:00 1,7 -1,0 -1,8 1,5 6,0 3 2 6 3 WNW 1024,2 19 0,0
15.01.2020 09:00:00 -1,7 -2,8 -4,6 1,5 6,0 2 1 8 4 N 1024,8 18 0,0
15.01.2020 08:00:00 -2,1 -3,1 -4,6 1,6 6,0 4 2 12 6 NE 1024,1 20 0,0
15.01.2020 07:00:00 -2,1 -3,4 -4,2 1,6 6,0 4 2 9 5 E 1023,8 32 0,0
15.01.2020 06:00:00 -1,4 -2,8 -4,1 1,6 6,0 4 2 11 6 ENE 1023,5 31 0,0
15.01.2020 05:00:00 -1,0 -2,7 -3,4 1,7 6,0 4 2 13 7 ENE 1023,4 39 0,0
15.01.2020 04:00:00 -0,4 -1,8 -3,6 1,7 6,0 6 3 10 5 N 1023,2 21 0,0
15.01.2020 03:00:00 -1,0 -2,0 -3,4 1,7 6,1 3 2 13 7 ENE 1023,8 18 0,0
15.01.2020 02:00:00 -1,0 -2,0 -3,2 1,8 6,0 4 2 14 8 NE 1023,8 17 0,0
15.01.2020 01:00:00 0,1 -1,7 -2,8 1,8 6,0 8 4 12 7 ENE 1023,3 16 0,0
15.01.2020 00:00:00 -0,1 -1,4 -2,4 1,9 6,1 4 2 15 8 NNE 1023,5 13 0,0
14.01.2020 23:00:00 0,4 -1,0 -2,1 1,9 6,0 8 4 15 8 NE 1023,3 17 0,0
14.01.2020 22:00:00 1,0 -1,4 -2,2 2,0 6,0 11 6 14 7 ENE 1023,3 17 0,0
14.01.2020 21:00:00 1,3 -0,6 -2,1 2,1 6,0 0 0 8 5 N 1023,0 15 0,0
14.01.2020 20:00:00 2,6 -0,5 -1,2 2,2 6,1 8 5 13 7 NE 1022,8 20 0,0
14.01.2020 19:00:00 3,0 -0,5 -0,2 2,2 6,1 5 3 10 5 E 1022,6 20 0,0
14.01.2020 18:00:00 6,8 -0,2 1,3 2,1 6,1 6 3 16 9 WSW 1021,4 20 0,0
14.01.2020 17:00:00 9,8 -0,4 8,2 1,9 6,1 9 5 19 10 SSE 1020,4 60 0,0
14.01.2020 16:00:00 9,7 -0,2 8,7 1,7 6,1 10 5 22 12 S 1020,4 60 0,0
14.01.2020 15:00:00 10,0 0,3 9,2 1,5 6,1 11 6 26 14 SW 1020,5 59 0,0
14.01.2020 14:00:00 10,8 -0,1 13,4 1,4 6,0 16 8 24 13 SSW 1020,3 55 0,0
14.01.2020 13:00:00 10,0 -2,3 11,6 1,5 6,1 2 1 6 3 NNW 1021,4 50 0,0
14.01.2020 12:00:00 7,3 -2,5 8,3 1,5 6,1 4 2 10 5 ESE 1022,2 39 0,0
14.01.2020 11:00:00 4,6 -1,6 3,2 1,5 6,1 6 4 13 7 E 1023,2 35 0,0
14.01.2020 10:00:00 1,3 -1,1 -1,6 1,5 6,1 10 5 14 7 ENE 1023,4 19 0,0
14.01.2020 09:00:00 -2,0 -3,1 -4,3 1,5 6,1 8 5 13 7 NE 1023,6 19 0,0
14.01.2020 08:00:00 -2,5 -3,8 -4,6 1,6 6,1 6 3 11 6 N 1023,5 12 0,0
14.01.2020 07:00:00 -2,6 -4,6 -4,9 1,6 6,1 5 3 13 7 E 1023,6 17 0,0
14.01.2020 06:00:00 -2,5 -3,3 -4,6 1,6 6,1 4 2 11 6 NE 1023,0 17 0,0
14.01.2020 05:00:00 -2,1 -3,7 -3,4 1,7 6,1 4 2 12 6 NNE 1022,1 14 0,0
14.01.2020 04:00:00 -1,7 -3,1 -3,6 1,7 6,1 6 4 11 6 NNE 1022,6 15 0,0
14.01.2020 03:00:00 -2,3 -3,6 -4,5 1,7 6,1 4 2 10 5 N 1023,3 14 0,0
14.01.2020 02:00:00 -2,5 -3,8 -4,4 1,8 6,1 3 2 10 5 N 1023,1 13 0,0
14.01.2020 01:00:00 -2,7 -3,8 -4,1 1,8 6,1 9 5 10 6 ENE 1023,7 12 0,0
14.01.2020 00:00:00 -1,8 -3,2 -4,0 1,9 6,1 4 2 10 6 N 1023,2 14 0,0
13.01.2020 23:00:00 -1,7 -3,1 -3,6 2,0 6,1 7 4 11 6 NE 1023,0 12 0,0
13.01.2020 22:00:00 -1,8 -3,1 -4,1 2,0 6,1 8 5 10 6 ENE 1022,9 12 0,0
13.01.2020 21:00:00 -1,5 -3,1 -2,8 2,1 6,1 7 4 12 7 E 1023,2 12 0,0
13.01.2020 20:00:00 -0,4 -2,3 -1,9 2,1 6,1 10 5 14 8 NE 1023,5 12 0,0
13.01.2020 19:00:00 0,8 -1,9 -2,9 2,3 6,1 6 3 12 7 NNE 1023,5 16 0,0
13.01.2020 18:00:00 2,2 -1,2 -1,7 2,2 6,1 4 2 9 5 N 1023,1 16 0,0
13.01.2020 17:00:00 5,1 -1,6 2,9 2,1 6,1 4 2 6 4 ESE 1022,1 35 0,0
13.01.2020 16:00:00 6,9 -0,6 9,0 1,9 6,1 0 0 8 5 N 1021,8 29 0,0
13.01.2020 15:00:00 6,2 0,5 7,8 1,8 6,1 6 4 10 5 SSW 1023,1 37 0,0
13.01.2020 14:00:00 5,9 -2,0 8,4 1,7 6,1 3 2 8 4 W 1023,3 49 0,0
13.01.2020 13:00:00 5,2 -1,9 6,6 1,7 6,1 0 0 4 2 N 1024,1 50 0,0
13.01.2020 12:00:00 3,7 -1,1 5,2 1,7 6,1 2 1 4 2 W 1025,6 36 0,0
13.01.2020 11:00:00 2,1 -1,3 0,0 1,8 6,1 2 1 4 2 SE 1027,0 29 0,0
13.01.2020 10:00:00 -0,8 -2,4 -2,6 1,8 6,1 2 1 8 4 NNE 1027,8 19 0,0
13.01.2020 09:00:00 -2,4 -3,5 -5,7 1,9 6,1 9 5 10 5 ENE 1028,2 20 0,0
13.01.2020 08:00:00 -3,1 -3,8 -5,7 1,9 6,1 3 1 6 3 NE 1028,4 20 0,0
13.01.2020 07:00:00 -3,6 -4,3 -5,8 2,0 6,1 0 0 5 3 N 1028,6 20 0,0
13.01.2020 06:00:00 -3,6 -4,1 -5,9 2,1 6,1 0 0 8 4 N 1028,7 14 0,0
13.01.2020 05:00:00 -3,0 -3,7 -5,6 2,1 6,1 4 2 8 4 ENE 1028,8 10 0,0
13.01.2020 04:00:00 -2,9 -3,6 -5,7 2,2 6,1 4 2 7 4 N 1029,2 8 0,0
13.01.2020 03:00:00 -2,7 -3,2 -5,4 2,3 6,1 3 1 8 4 N 1029,7 9 0,0
13.01.2020 02:00:00 -2,5 -3,5 -4,9 2,4 6,1 2 1 6 4 NNW 1029,7 6 0,0
13.01.2020 01:00:00 -1,6 -2,4 -3,7 2,5 6,1 5 3 8 5 N 1030,0 12 0,0
13.01.2020 00:00:00 -1,1 -1,9 -3,8 2,6 6,1 5 3 9 5 N 1030,4 7 0,0
12.01.2020 23:00:00 -0,4 -1,8 -3,0 2,7 6,1 7 4 9 5 ENE 1030,4 13 0,0
12.01.2020 22:00:00 0,4 -1,2 -2,6 2,9 6,1 5 3 9 5 NNE 1030,5 12 0,0
12.01.2020 21:00:00 0,8 -1,3 -2,3 3,0 6,1 3 1 9 5 E 1030,7 11 0,0
12.01.2020 20:00:00 1,6 -1,0 -1,0 3,1 6,1 6 3 10 5 NE 1030,5 16 0,0
12.01.2020 19:00:00 2,9 0,5 -1,4 3,2 6,1 4 2 10 5 NNE 1030,1 13 0,0
12.01.2020 18:00:00 3,9 0,4 -0,4 3,2 6,1 3 2 10 5 NNE 1029,8 14 0,0
12.01.2020 17:00:00 6,9 1,6 5,5 3,1 6,1 3 2 8 4 SW 1029,0 16 0,0
12.01.2020 16:00:00 8,5 2,5 12,1 2,8 6,1 5 3 9 5 SSW 1028,7 30 0,0
12.01.2020 15:00:00 9,5 1,4 11,8 2,5 6,1 0 0 12 6 N 1028,7 33 0,0
12.01.2020 14:00:00 9,0 0,7 12,4 2,3 6,1 3 2 12 6 WSW 1029,3 23 0,0
12.01.2020 13:00:00 7,6 0,8 10,0 2,1 6,1 2 1 6 3 ESE 1030,1 28 0,0
12.01.2020 12:00:00 6,0 0,5 8,0 2,1 6,1 0 0 5 3 N 1031,5 22 0,0
12.01.2020 11:00:00 3,4 -0,3 4,0 2,1 6,1 2 1 6 4 SSW 1032,6 19 0,0
12.01.2020 10:00:00 2,1 -1,0 -1,3 2,1 6,1 2 1 6 3 ESE 1032,6 13 0,0
12.01.2020 09:00:00 -1,9 -2,5 -3,5 2,3 6,1 4 2 10 5 NNE 1033,0 10 0,0
12.01.2020 08:00:00 -2,1 -2,8 -4,0 2,3 6,1 6 4 10 5 ENE 1033,0 11 0,0
12.01.2020 07:00:00 -1,5 -1,9 -3,5 2,4 6,1 6 3 10 5 N 1032,5 10 0,0
12.01.2020 06:00:00 -1,9 -2,6 -3,6 2,5 6,1 6 3 13 7 ENE 1032,3 10 0,0
12.01.2020 05:00:00 -0,9 -1,6 -2,1 2,6 6,1 9 5 14 8 NE 1031,9 7 0,0
12.01.2020 04:00:00 0,1 -1,0 -1,3 2,7 6,1 10 5 14 7 NE 1032,0 18 0,0
12.01.2020 03:00:00 0,3 -0,8 -0,6 2,8 6,1 10 6 16 8 ENE 1032,4 18 0,0
12.01.2020 02:00:00 1,8 0,3 0,9 2,8 6,1 13 7 16 9 NE 1031,9 16 0,0
12.01.2020 01:00:00 1,8 0,8 0,8 2,9 6,1 3 1 7 4 NNE 1032,3 8 0,0
12.01.2020 00:00:00 1,4 0,4 0,2 2,9 6,1 3 2 8 4 N 1032,7 8 0,0
11.01.2020 23:00:00 0,8 -0,1 -1,5 3,0 6,1 4 2 5 3 NNE 1032,8 8 0,0

tt = Température de l'air
td = dewpoint
tt 5cm = Température de l'air 5cm
tt -20cm = Température de l'air -20cm
tt -100cm = Température de l'air -100cm
ff = Vitesse du vent
fx = gusts
dd = Direction du vent
ppp = reduced air pressure
vv = visibility
rr = Quantités de précipitations

stations d'obs. à proximité